カタログに戻る

COSMOS 1375 DEB

運用中LEO
NORAD 17798·DEBRIS·🇷🇺 Russia

打ち上げ Jun 6, 1982 から Plesetsk Cosmodrome

Loading…

次のパス (今後24時間)

TLE

最新Source: Space-Track

元期: Sep 14, 2026, 13:46 UTC

1 17798U 82055AQ  26257.57368454 -.00000046  00000-0  41434-4 0  9997
2 17798  65.8341  92.2276 0069649 148.0103 246.0457 13.59315589 29086

AllMySatでCOSMOS 1375 DEBをリアルタイム追跡

Download on the App Store